Time,TemperatureF,DewpointF,PressureIn,WindDirection,WindDirectionDegrees,WindSpeedMPH,WindSpeedGustMPH,Humidity,HourlyPrecipIn,Conditions,Clouds,dailyrainin,SoftwareType,DateUTC
2013-05-10 00:00:00,49.4,20.0,30.32,NNE,21,0.0,0.0,31,0.00,,---,0.00,VWS V14.01,2013-05-10 08:00:00,
2013-05-10 00:05:00,49.4,20.0,30.32,NNE,21,0.0,1.0,31,0.00,,---,0.00,VWS V14.01,2013-05-10 08:05:00,
2013-05-10 00:10:00,49.4,20.0,30.32,NNE,21,0.0,1.0,31,0.00,,---,0.00,VWS V14.01,2013-05-10 08:10:00,
2013-05-10 00:15:00,49.3,20.0,30.32,NNE,21,0.0,1.0,31,0.00,,---,0.00,VWS V14.01,2013-05-10 08:15:00,
2013-05-10 00:20:00,49.2,19.9,30.32,NNE,21,0.0,1.0,31,0.00,,---,0.00,VWS V14.01,2013-05-10 08:20:00,
2013-05-10 00:25:00,49.2,19.9,30.32,NNE,21,0.0,1.0,31,0.00,,---,0.00,VWS V14.01,2013-05-10 08:25:00,
2013-05-10 00:30:00,49.1,19.8,30.32,NNE,21,0.0,1.0,31,0.00,,---,0.00,VWS V14.01,2013-05-10 08:30:00,
2013-05-10 00:35:00,49.0,20.4,30.32,NNE,21,0.0,0.0,32,0.00,,---,0.00,VWS V14.01,2013-05-10 08:35:00,
2013-05-10 00:40:00,49.0,20.4,30.32,NNE,21,0.0,1.0,32,0.00,,---,0.00,VWS V14.01,2013-05-10 08:40:00,
2013-05-10 00:45:00,49.0,20.4,30.32,NNE,21,0.0,1.0,32,0.00,,---,0.00,VWS V14.01,2013-05-10 08:45:00,
2013-05-10 00:50:00,49.0,20.4,30.32,NNE,21,0.0,1.0,32,0.00,,---,0.00,VWS V14.01,2013-05-10 08:50:00,
2013-05-10 00:55:00,48.9,20.4,30.32,NNE,21,0.0,1.0,32,0.00,,---,0.00,VWS V14.01,2013-05-10 08:55:00,
2013-05-10 01:00:00,48.7,20.2,30.32,NNE,19,1.0,1.0,32,0.00,,---,0.00,VWS V14.01,2013-05-10 09:00:00,
2013-05-10 01:05:00,48.5,20.0,30.32,NNE,19,0.0,1.0,32,0.00,,---,0.00,VWS V14.01,2013-05-10 09:05:00,
2013-05-10 01:10:00,48.4,20.6,30.31,NNE,19,0.0,2.0,33,0.00,,---,0.00,VWS V14.01,2013-05-10 09:10:00,
2013-05-10 01:15:00,48.3,20.5,30.31,WNW,303,1.0,3.0,33,0.00,,---,0.00,VWS V14.01,2013-05-10 09:15:00,
2013-05-10 01:20:00,48.2,20.5,30.31,WNW,303,0.0,3.0,33,0.00,,---,0.00,VWS V14.01,2013-05-10 09:20:00,
2013-05-10 01:25:00,48.0,21.0,30.31,WNW,295,1.0,3.0,34,0.00,,---,0.00,VWS V14.01,2013-05-10 09:25:00,
2013-05-10 01:30:00,47.8,20.8,30.31,WNW,287,0.0,4.0,34,0.00,,---,0.00,VWS V14.01,2013-05-10 09:30:00,
2013-05-10 01:35:00,47.8,20.8,30.31,West,276,0.0,3.0,34,0.00,,---,0.00,VWS V14.01,2013-05-10 09:35:00,
2013-05-10 01:40:00,47.8,20.1,30.31,West,276,0.0,3.0,33,0.00,,---,0.00,VWS V14.01,2013-05-10 09:40:00,
2013-05-10 01:45:00,47.6,20.6,30.31,West,276,0.0,3.0,34,0.00,,---,0.00,VWS V14.01,2013-05-10 09:45:00,
2013-05-10 01:50:00,47.5,20.5,30.31,West,276,0.0,3.0,34,0.00,,---,0.00,VWS V14.01,2013-05-10 09:50:00,
2013-05-10 01:55:00,47.4,20.5,30.31,NW,318,0.0,4.0,34,0.00,,---,0.00,VWS V14.01,2013-05-10 09:55:00,
2013-05-10 02:00:00,47.1,20.2,30.31,WNW,291,0.0,4.0,34,0.00,,---,0.00,VWS V14.01,2013-05-10 10:00:00,
2013-05-10 02:05:00,47.1,20.9,30.31,WNW,292,0.0,3.0,35,0.00,,---,0.00,VWS V14.01,2013-05-10 10:05:00,
2013-05-10 02:10:00,47.0,20.8,30.31,WNW,297,2.0,3.0,35,0.00,,---,0.00,VWS V14.01,2013-05-10 10:10:00,
2013-05-10 02:15:00,47.0,20.8,30.31,WNW,301,1.0,3.0,35,0.00,,---,0.00,VWS V14.01,2013-05-10 10:15:00,
2013-05-10 02:20:00,46.9,20.7,30.31,WNW,301,2.0,3.0,35,0.00,,---,0.00,VWS V14.01,2013-05-10 10:20:00,
2013-05-10 02:25:00,46.9,21.4,30.31,NW,305,3.0,5.0,36,0.00,,---,0.00,VWS V14.01,2013-05-10 10:25:00,
2013-05-10 02:30:00,46.9,21.4,30.31,NW,309,2.0,5.0,36,0.00,,---,0.00,VWS V14.01,2013-05-10 10:30:00,
2013-05-10 02:35:00,46.8,21.3,30.31,NW,314,1.0,4.0,36,0.00,,---,0.00,VWS V14.01,2013-05-10 10:35:00,
2013-05-10 02:40:00,46.6,21.1,30.31,NNW,331,0.0,4.0,36,0.00,,---,0.00,VWS V14.01,2013-05-10 10:40:00,
2013-05-10 02:45:00,46.4,21.6,30.31,NW,326,3.0,4.0,37,0.00,,---,0.00,VWS V14.01,2013-05-10 10:45:00,
2013-05-10 02:50:00,46.4,21.6,30.31,NW,326,1.0,4.0,37,0.00,,---,0.00,VWS V14.01,2013-05-10 10:50:00,
2013-05-10 02:55:00,46.5,22.3,30.30,NW,326,1.0,4.0,38,0.00,,---,0.00,VWS V14.01,2013-05-10 10:55:00,
2013-05-10 03:00:00,46.6,22.4,30.30,NW,326,1.0,4.0,38,0.00,,---,0.00,VWS V14.01,2013-05-10 11:00:00,
2013-05-10 03:05:00,46.6,23.0,30.30,NW,326,1.0,2.0,39,0.00,,---,0.00,VWS V14.01,2013-05-10 11:05:00,
2013-05-10 03:10:00,46.5,22.9,30.30,NW,326,1.0,3.0,39,0.00,,---,0.00,VWS V14.01,2013-05-10 11:10:00,
2013-05-10 03:15:00,46.4,22.8,30.30,NW,326,0.0,4.0,39,0.00,,---,0.00,VWS V14.01,2013-05-10 11:15:00,
2013-05-10 03:20:00,46.3,23.3,30.30,NW,326,0.0,4.0,40,0.00,,---,0.00,VWS V14.01,2013-05-10 11:20:00,
2013-05-10 03:25:00,46.1,23.1,30.30,NW,326,0.0,4.0,40,0.00,,---,0.00,VWS V14.01,2013-05-10 11:25:00,
2013-05-10 03:30:00,45.9,23.0,30.30,NW,326,0.0,4.0,40,0.00,,---,0.00,VWS V14.01,2013-05-10 11:30:00,
2013-05-10 03:35:00,45.8,23.5,30.30,NW,326,0.0,0.0,41,0.00,,---,0.00,VWS V14.01,2013-05-10 11:35:00,
2013-05-10 03:40:00,45.8,22.9,30.30,NW,326,0.0,1.0,40,0.00,,---,0.00,VWS V14.01,2013-05-10 11:40:00,
2013-05-10 03:45:00,45.7,23.4,30.30,NW,326,0.0,1.0,41,0.00,,---,0.00,VWS V14.01,2013-05-10 11:45:00,
2013-05-10 03:50:00,45.5,23.2,30.30,NW,326,0.0,1.0,41,0.00,,---,0.00,VWS V14.01,2013-05-10 11:50:00,
2013-05-10 03:55:00,45.6,23.3,30.30,NW,326,0.0,1.0,41,0.00,,---,0.00,VWS V14.01,2013-05-10 11:55:00,
2013-05-10 04:00:00,45.6,23.9,30.30,NW,326,0.0,1.0,42,0.00,,---,0.00,VWS V14.01,2013-05-10 12:00:00,
2013-05-10 04:05:00,45.7,23.9,30.30,NW,326,0.0,0.0,42,0.00,,---,0.00,VWS V14.01,2013-05-10 12:05:00,
2013-05-10 04:10:00,45.7,23.9,30.30,NW,326,0.0,1.0,42,0.00,,---,0.00,VWS V14.01,2013-05-10 12:10:00,
2013-05-10 04:15:00,45.6,23.9,30.30,NW,326,0.0,1.0,42,0.00,,---,0.00,VWS V14.01,2013-05-10 12:15:00,
2013-05-10 04:20:00,45.5,23.8,30.30,NW,326,0.0,1.0,42,0.00,,---,0.00,VWS V14.01,2013-05-10 12:20:00,
2013-05-10 04:25:00,45.2,23.5,30.30,NW,326,0.0,1.0,42,0.00,,---,0.00,VWS V14.01,2013-05-10 12:25:00,
2013-05-10 04:30:00,45.0,23.3,30.29,NW,326,0.0,1.0,42,0.00,,---,0.00,VWS V14.01,2013-05-10 12:30:00,
2013-05-10 04:35:00,44.8,23.1,30.29,NW,326,0.0,1.0,42,0.00,,---,0.00,VWS V14.01,2013-05-10 12:35:00,
2013-05-10 04:40:00,44.8,23.1,30.29,NW,326,0.0,1.0,42,0.00,,---,0.00,VWS V14.01,2013-05-10 12:40:00,
2013-05-10 04:45:00,44.7,22.5,30.29,NW,326,0.0,1.0,41,0.00,,---,0.00,VWS V14.01,2013-05-10 12:45:00,
2013-05-10 04:50:00,44.5,22.9,30.29,NW,326,0.0,1.0,42,0.00,,---,0.00,VWS V14.01,2013-05-10 12:50:00,
2013-05-10 04:54:00,44.4,22.8,30.29,NW,326,0.0,1.0,42,0.00,,---,0.00,VWS V14.01,2013-05-10 12:54:00,
2013-05-10 04:59:00,44.3,23.2,30.29,NW,326,0.0,1.0,43,0.00,,---,0.00,VWS V14.01,2013-05-10 12:59:00,
2013-05-10 05:00:00,44.3,23.2,30.29,NW,315,0.0,1.0,43,0.00,,---,0.00,VWS V14.01,2013-05-10 13:00:00,
2013-05-10 05:04:00,44.3,23.8,30.29,NW,326,0.0,1.0,44,0.00,,---,0.00,VWS V14.01,2013-05-10 13:04:00,
2013-05-10 05:09:00,44.3,23.8,30.29,NW,326,0.0,1.0,44,0.00,,---,0.00,VWS V14.01,2013-05-10 13:09:00,
2013-05-10 05:14:00,44.3,23.8,30.28,NW,326,0.0,1.0,44,0.00,,---,0.00,VWS V14.01,2013-05-10 13:14:00,
2013-05-10 05:19:00,44.3,23.8,30.28,NW,326,0.0,1.0,44,0.00,,---,0.00,VWS V14.01,2013-05-10 13:19:00,
2013-05-10 05:24:00,44.2,23.7,30.28,NW,326,0.0,1.0,44,0.00,,---,0.00,VWS V14.01,2013-05-10 13:24:00,
2013-05-10 05:29:00,44.0,23.5,30.29,NW,326,0.0,1.0,44,0.00,,---,0.00,VWS V14.01,2013-05-10 13:29:00,
2013-05-10 05:30:00,44.0,23.0,30.29,NW,315,0.0,2.0,43,0.00,,---,0.00,VWS V14.01,2013-05-10 13:30:00,
2013-05-10 05:34:00,43.8,22.8,30.28,NW,326,0.0,0.0,43,0.00,,---,0.00,VWS V14.01,2013-05-10 13:34:00,
2013-05-10 05:39:00,43.7,23.2,30.28,NW,326,0.0,0.0,44,0.00,,---,0.00,VWS V14.01,2013-05-10 13:39:00,
2013-05-10 05:44:00,43.6,22.6,30.28,NW,326,0.0,0.0,43,0.00,,---,0.00,VWS V14.01,2013-05-10 13:44:00,
2013-05-10 05:49:00,43.5,23.6,30.28,NW,326,0.0,0.0,45,0.00,,---,0.00,VWS V14.01,2013-05-10 13:49:00,
2013-05-10 05:54:00,43.6,23.7,30.28,NW,326,0.0,0.0,45,0.00,,---,0.00,VWS V14.01,2013-05-10 13:54:00,
2013-05-10 05:59:00,43.6,23.1,30.28,NW,326,0.0,0.0,44,0.00,,---,0.00,VWS V14.01,2013-05-10 13:59:00,
2013-05-10 06:00:00,43.6,23.1,30.28,NW,315,0.0,0.0,44,0.00,,---,0.00,VWS V14.01,2013-05-10 14:00:00,
2013-05-10 06:04:00,43.6,23.1,30.28,NW,326,0.0,0.0,44,0.00,,---,0.00,VWS V14.01,2013-05-10 14:04:00,
2013-05-10 06:09:00,43.6,23.7,30.28,NW,326,0.0,0.0,45,0.00,,---,0.00,VWS V14.01,2013-05-10 14:09:00,
2013-05-10 06:14:00,43.7,23.2,30.28,NW,326,0.0,0.0,44,0.00,,---,0.00,VWS V14.01,2013-05-10 14:14:00,
2013-05-10 06:19:00,43.8,23.3,30.28,NW,326,0.0,0.0,44,0.00,,---,0.00,VWS V14.01,2013-05-10 14:19:00,
2013-05-10 06:24:00,43.9,23.4,30.28,NW,326,0.0,0.0,44,0.00,,---,0.00,VWS V14.01,2013-05-10 14:24:00,
2013-05-10 06:29:00,43.9,23.4,30.28,NW,326,0.0,0.0,44,0.00,,---,0.00,VWS V14.01,2013-05-10 14:29:00,
2013-05-10 06:30:00,43.9,23.4,30.28,NW,315,0.0,1.0,44,0.00,,---,0.00,VWS V14.01,2013-05-10 14:30:00,
2013-05-10 06:34:00,43.9,23.4,30.28,NW,326,0.0,0.0,44,0.00,,---,0.00,VWS V14.01,2013-05-10 14:34:00,
2013-05-10 06:39:00,43.9,23.4,30.28,NW,326,0.0,0.0,44,0.00,,---,0.00,VWS V14.01,2013-05-10 14:39:00,
2013-05-10 06:44:00,43.9,23.4,30.27,NW,326,0.0,0.0,44,0.00,,---,0.00,VWS V14.01,2013-05-10 14:44:00,
2013-05-10 06:49:00,43.8,23.3,30.27,NW,326,0.0,0.0,44,0.00,,---,0.00,VWS V14.01,2013-05-10 14:49:00,
2013-05-10 06:54:00,43.8,23.3,30.28,NW,326,0.0,0.0,44,0.00,,---,0.00,VWS V14.01,2013-05-10 14:54:00,
2013-05-10 06:59:00,44.0,23.5,30.27,NW,326,0.0,1.0,44,0.00,,---,0.00,VWS V14.01,2013-05-10 14:59:00,
2013-05-10 07:00:00,44.0,23.5,30.27,NW,315,0.0,1.0,44,0.00,,---,0.00,VWS V14.01,2013-05-10 15:00:00,
2013-05-10 07:04:00,44.0,23.5,30.27,NW,326,0.0,1.0,44,0.00,,---,0.00,VWS V14.01,2013-05-10 15:04:00,
2013-05-10 07:09:00,44.1,23.6,30.27,NW,326,0.0,1.0,44,0.00,,---,0.00,VWS V14.01,2013-05-10 15:09:00,
2013-05-10 07:14:00,44.1,23.6,30.27,NW,326,0.0,2.0,44,0.00,,---,0.00,VWS V14.01,2013-05-10 15:14:00,
2013-05-10 07:19:00,44.1,23.6,30.27,NW,326,0.0,2.0,44,0.00,,---,0.00,VWS V14.01,2013-05-10 15:19:00,
2013-05-10 07:24:00,44.2,23.7,30.27,NW,326,0.0,2.0,44,0.00,,---,0.00,VWS V14.01,2013-05-10 15:24:00,
2013-05-10 07:29:00,44.4,23.9,30.27,NW,326,1.0,2.0,44,0.00,,---,0.00,VWS V14.01,2013-05-10 15:29:00,
2013-05-10 07:30:00,44.5,24.0,30.27,NW,315,0.0,2.0,44,0.00,,---,0.00,VWS V14.01,2013-05-10 15:30:00,
2013-05-10 07:34:00,44.5,24.0,30.27,NW,326,1.0,1.0,44,0.00,,---,0.00,VWS V14.01,2013-05-10 15:34:00,
2013-05-10 07:39:00,44.5,24.0,30.27,SSW,197,4.0,4.0,44,0.00,,---,0.00,VWS V14.01,2013-05-10 15:39:00,
2013-05-10 07:44:00,44.4,23.9,30.27,South,184,0.0,4.0,44,0.00,,---,0.00,VWS V14.01,2013-05-10 15:44:00,
2013-05-10 07:49:00,44.2,23.7,30.27,South,184,0.0,4.0,44,0.00,,---,0.00,VWS V14.01,2013-05-10 15:49:00,
2013-05-10 07:54:00,44.1,24.1,30.27,South,181,2.0,4.0,45,0.00,,---,0.00,VWS V14.01,2013-05-10 15:54:00,
2013-05-10 07:59:00,44.0,24.0,30.27,South,171,2.0,5.0,45,0.00,,---,0.00,VWS V14.01,2013-05-10 15:59:00,
2013-05-10 08:00:00,44.0,24.0,30.27,South,180,1.0,5.0,45,0.00,,---,0.00,VWS V14.01,2013-05-10 16:00:00,
2013-05-10 08:04:00,44.0,24.6,30.27,South,180,3.0,4.0,46,0.00,,---,0.00,VWS V14.01,2013-05-10 16:04:00,
2013-05-10 08:09:00,44.0,24.6,30.27,South,175,1.0,5.0,46,0.00,,---,0.00,VWS V14.01,2013-05-10 16:09:00,
2013-05-10 08:14:00,44.0,24.6,30.27,SSE,168,1.0,5.0,46,0.00,,---,0.00,VWS V14.01,2013-05-10 16:14:00,
2013-05-10 08:19:00,43.9,24.5,30.27,SSW,201,3.0,5.0,46,0.00,,---,0.00,VWS V14.01,2013-05-10 16:19:00,
2013-05-10 08:24:00,43.8,24.4,30.27,South,178,5.0,6.0,46,0.00,,---,0.00,VWS V14.01,2013-05-10 16:24:00,
2013-05-10 08:29:00,43.8,24.9,30.27,SSE,160,4.0,6.0,47,0.00,,---,0.00,VWS V14.01,2013-05-10 16:29:00,
2013-05-10 08:30:00,44.0,25.1,30.27,South,180,2.0,6.0,47,0.00,,---,0.00,VWS V14.01,2013-05-10 16:30:00,
2013-05-10 08:34:00,44.0,25.1,30.27,SSE,167,4.0,4.0,47,0.00,,---,0.00,VWS V14.01,2013-05-10 16:34:00,
2013-05-10 08:39:00,44.1,25.2,30.26,South,175,5.0,5.0,47,0.00,,---,0.00,VWS V14.01,2013-05-10 16:39:00,
2013-05-10 08:44:00,44.0,24.6,30.26,South,169,1.0,6.0,46,0.00,,---,0.00,VWS V14.01,2013-05-10 16:44:00,
2013-05-10 08:49:00,44.1,26.2,30.26,SSE,166,4.0,6.0,49,0.00,,---,0.00,VWS V14.01,2013-05-10 16:49:00,
2013-05-10 08:54:00,44.1,25.7,30.27,SSE,163,2.0,6.0,48,0.00,,---,0.00,VWS V14.01,2013-05-10 16:54:00,
2013-05-10 08:59:00,44.1,25.7,30.26,SSE,163,2.0,6.0,48,0.00,,---,0.00,VWS V14.01,2013-05-10 16:59:00,
2013-05-10 09:00:00,44.2,25.8,30.26,SSE,158,2.0,6.0,48,0.00,,---,0.00,VWS V14.01,2013-05-10 17:00:00,
2013-05-10 09:04:00,44.2,25.8,30.26,SSE,167,4.0,4.0,48,0.00,,---,0.00,VWS V14.01,2013-05-10 17:04:00,
2013-05-10 09:09:00,44.3,25.4,30.26,SSE,168,2.0,6.0,47,0.00,,---,0.00,VWS V14.01,2013-05-10 17:09:00,
2013-05-10 09:14:00,44.3,25.4,30.26,SSE,165,2.0,6.0,47,0.00,,---,0.00,VWS V14.01,2013-05-10 17:14:00,
2013-05-10 09:19:00,44.3,25.4,30.26,South,178,4.0,6.0,47,0.00,,---,0.00,VWS V14.01,2013-05-10 17:19:00,
2013-05-10 09:24:00,44.3,25.9,30.26,South,177,2.0,6.0,48,0.00,,---,0.00,VWS V14.01,2013-05-10 17:24:00,
2013-05-10 09:29:00,44.5,24.5,30.26,South,173,5.0,6.0,45,0.00,,---,0.00,VWS V14.01,2013-05-10 17:29:00,
2013-05-10 09:30:00,29.0,30.6,100.00,North,1,4.0,18.0,76,0.00,,---,0.00,VWS V14.01,2013-05-10 17:30:00,
2013-05-10 09:34:00,44.6,25.1,30.25,South,182,3.0,7.0,46,0.00,,---,0.00,VWS V14.01,2013-05-10 17:34:00,
2013-05-10 09:39:00,44.8,25.3,30.25,South,170,2.0,7.0,46,0.00,,---,0.00,VWS V14.01,2013-05-10 17:39:00,
2013-05-10 09:44:00,45.0,25.0,30.25,South,180,3.0,7.0,45,0.00,,---,0.00,VWS V14.01,2013-05-10 17:44:00,
2013-05-10 09:49:00,45.2,25.1,30.25,SSE,148,4.0,7.0,45,0.00,,---,0.00,VWS V14.01,2013-05-10 17:49:00,
2013-05-10 09:54:00,45.5,25.4,30.25,SE,138,2.0,7.0,45,0.00,,---,0.00,VWS V14.01,2013-05-10 17:54:00,
2013-05-10 09:59:00,45.3,24.7,30.25,South,179,2.0,7.0,44,0.00,,---,0.00,VWS V14.01,2013-05-10 17:59:00,
2013-05-10 10:00:00,29.0,30.6,100.00,North,1,6.0,18.0,76,0.00,,---,0.00,VWS V14.01,2013-05-10 18:00:00,
2013-05-10 10:04:00,45.4,25.9,30.25,South,176,4.0,6.0,46,0.00,,---,0.00,VWS V14.01,2013-05-10 18:04:00,
2013-05-10 10:09:00,45.5,23.8,30.25,South,184,3.0,8.0,42,0.00,,---,0.00,VWS V14.01,2013-05-10 18:09:00,
2013-05-10 10:14:00,45.3,23.6,30.25,SSE,161,5.0,8.0,42,0.00,,---,0.00,VWS V14.01,2013-05-10 18:14:00,
2013-05-10 10:19:00,45.2,24.0,30.25,South,190,3.0,8.0,43,0.00,,---,0.00,VWS V14.01,2013-05-10 18:19:00,
2013-05-10 10:24:00,45.5,24.3,30.25,South,183,5.0,8.0,43,0.00,,---,0.00,VWS V14.01,2013-05-10 18:24:00,
2013-05-10 10:29:00,45.7,25.0,30.25,SE,146,5.0,8.0,44,0.00,,---,0.00,VWS V14.01,2013-05-10 18:29:00,
2013-05-10 10:30:00,29.0,30.6,100.00,North,1,4.0,18.0,76,0.00,,---,0.00,VWS V14.01,2013-05-10 18:30:00,
2013-05-10 10:34:00,45.8,25.1,30.25,South,186,4.0,4.0,44,0.00,,---,0.00,VWS V14.01,2013-05-10 18:34:00,
2013-05-10 10:39:00,45.9,25.2,30.25,SSE,157,4.0,9.0,44,0.00,,---,0.00,VWS V14.01,2013-05-10 18:39:00,
2013-05-10 10:44:00,46.3,25.0,30.25,SSE,164,4.0,9.0,43,0.00,,---,0.00,VWS V14.01,2013-05-10 18:44:00,
2013-05-10 10:49:00,46.5,25.8,30.24,SSE,165,7.0,9.0,44,0.00,,---,0.00,VWS V14.01,2013-05-10 18:49:00,
2013-05-10 10:54:00,46.6,24.8,30.24,SSE,165,2.0,9.0,42,0.00,,---,0.00,VWS V14.01,2013-05-10 18:54:00,
2013-05-10 10:59:00,46.6,24.2,30.24,South,186,1.0,9.0,41,0.00,,---,0.00,VWS V14.01,2013-05-10 18:59:00,
2013-05-10 11:00:00,28.9,30.6,100.00,North,1,4.0,18.0,77,0.00,,---,0.00,VWS V14.01,2013-05-10 19:00:00,
2013-05-10 11:04:00,47.1,24.0,30.24,SSW,196,5.0,9.0,40,0.00,,---,0.00,VWS V14.01,2013-05-10 19:04:00,
2013-05-10 11:09:00,47.3,23.6,30.24,SSW,194,3.0,9.0,39,0.00,,---,0.00,VWS V14.01,2013-05-10 19:09:00,
2013-05-10 11:14:00,47.4,23.7,30.24,SSW,200,4.0,9.0,39,0.00,,---,0.00,VWS V14.01,2013-05-10 19:14:00,
2013-05-10 11:19:00,47.8,24.1,30.24,South,174,5.0,9.0,39,0.00,,---,0.00,VWS V14.01,2013-05-10 19:19:00,
2013-05-10 11:24:00,47.9,23.5,30.24,WSW,239,5.0,13.0,38,0.00,,---,0.00,VWS V14.01,2013-05-10 19:24:00,
2013-05-10 11:30:00,47.9,24.8,30.24,South,178,0.0,13.0,40,0.00,,---,0.00,VWS V14.01,2013-05-10 19:30:00,
2013-05-10 11:35:00,48.6,23.5,30.24,SSE,166,6.0,9.0,37,0.00,,---,0.00,VWS V14.01,2013-05-10 19:35:00,
2013-05-10 11:40:00,48.3,23.3,30.24,SW,232,3.0,9.0,37,0.00,,---,0.00,VWS V14.01,2013-05-10 19:40:00,
2013-05-10 11:45:00,48.2,23.8,30.24,South,184,0.0,9.0,38,0.00,,---,0.00,VWS V14.01,2013-05-10 19:45:00,
2013-05-10 11:50:00,48.5,23.4,30.24,SSW,192,2.0,9.0,37,0.00,,---,0.00,VWS V14.01,2013-05-10 19:50:00,
2013-05-10 11:55:00,48.2,23.2,30.24,SSW,200,3.0,9.0,37,0.00,,---,0.00,VWS V14.01,2013-05-10 19:55:00,
2013-05-10 12:00:00,48.7,23.6,30.24,SW,223,3.0,9.0,37,0.00,,---,0.00,VWS V14.01,2013-05-10 20:00:00,
2013-05-10 12:05:00,48.6,23.5,30.24,SW,223,3.0,8.0,37,0.00,,---,0.00,VWS V14.01,2013-05-10 20:05:00,
2013-05-10 12:10:00,48.6,23.5,30.24,SW,234,1.0,8.0,37,0.00,,---,0.00,VWS V14.01,2013-05-10 20:10:00,
2013-05-10 12:15:00,48.6,23.5,30.23,SSW,207,2.0,8.0,37,0.00,,---,0.00,VWS V14.01,2013-05-10 20:15:00,
2013-05-10 12:23:00,49.1,24.0,30.23,South,185,4.0,9.0,37,0.00,,---,0.00,VWS V14.01,2013-05-10 20:23:00,
2013-05-10 12:28:00,49.0,23.2,30.23,SSW,198,0.0,9.0,36,0.00,,---,0.00,VWS V14.01,2013-05-10 20:28:00,
2013-05-10 12:30:00,28.9,30.6,100.00,North,0,2.0,18.0,77,0.00,,---,0.00,VWS V14.01,2013-05-10 20:30:00,
2013-05-10 12:33:00,49.2,23.4,30.23,South,169,5.0,7.0,36,0.00,,---,0.00,VWS V14.01,2013-05-10 20:33:00,
2013-05-10 12:38:00,49.5,23.7,30.23,SW,228,7.0,7.0,36,0.00,,---,0.00,VWS V14.01,2013-05-10 20:38:00,
2013-05-10 12:43:00,49.5,23.7,30.23,South,190,6.0,7.0,36,0.00,,---,0.00,VWS V14.01,2013-05-10 20:43:00,
2013-05-10 12:48:00,49.6,23.1,30.23,SSW,194,1.0,8.0,35,0.00,,---,0.00,VWS V14.01,2013-05-10 20:48:00,
2013-05-10 12:53:00,49.6,23.1,30.22,SW,215,1.0,8.0,35,0.00,,---,0.00,VWS V14.01,2013-05-10 20:53:00,
2013-05-10 12:58:00,49.8,23.3,30.22,SSW,200,4.0,8.0,35,0.00,,---,0.00,VWS V14.01,2013-05-10 20:58:00,
2013-05-10 13:00:00,49.7,22.5,30.22,SW,225,3.0,9.0,34,0.00,,---,0.00,VWS V14.01,2013-05-10 21:00:00,
2013-05-10 13:03:00,49.7,23.2,30.22,SW,218,3.0,3.0,35,0.00,,---,0.00,VWS V14.01,2013-05-10 21:03:00,
2013-05-10 13:08:00,50.3,23.7,30.22,SSW,198,5.0,7.0,35,0.00,,---,0.00,VWS V14.01,2013-05-10 21:08:00,
2013-05-10 13:13:00,50.2,22.9,30.22,SW,233,2.0,8.0,34,0.00,,---,0.00,VWS V14.01,2013-05-10 21:13:00,
2013-05-10 13:18:00,50.1,22.8,30.22,SSW,198,0.0,8.0,34,0.00,,---,0.00,VWS V14.01,2013-05-10 21:18:00,
2013-05-10 13:23:00,50.5,23.2,30.21,SSW,196,4.0,8.0,34,0.00,,---,0.00,VWS V14.01,2013-05-10 21:23:00,
2013-05-10 13:28:00,50.4,23.1,30.21,SSE,161,1.0,8.0,34,0.00,,---,0.00,VWS V14.01,2013-05-10 21:28:00,
2013-05-10 13:30:00,28.9,30.5,100.00,North,0,4.0,19.0,77,0.00,,---,0.00,VWS V14.01,2013-05-10 21:30:00,
2013-05-10 13:33:00,50.4,23.1,30.21,SW,222,3.0,6.0,34,0.00,,---,0.00,VWS V14.01,2013-05-10 21:33:00,
2013-05-10 13:38:00,50.6,24.0,30.21,SSE,165,5.0,8.0,35,0.00,,---,0.00,VWS V14.01,2013-05-10 21:38:00,
2013-05-10 13:43:00,50.5,23.2,30.20,SSE,166,1.0,8.0,34,0.00,,---,0.00,VWS V14.01,2013-05-10 21:43:00,
2013-05-10 13:48:00,50.6,23.3,30.20,West,262,1.0,8.0,34,0.00,,---,0.00,VWS V14.01,2013-05-10 21:48:00,
2013-05-10 13:53:00,51.0,23.6,30.20,SW,236,5.0,8.0,34,0.00,,---,0.00,VWS V14.01,2013-05-10 21:53:00,
2013-05-10 13:58:00,51.0,22.9,30.20,SSE,161,7.0,8.0,33,0.00,,---,0.00,VWS V14.01,2013-05-10 21:58:00,
2013-05-10 14:00:00,28.9,30.5,100.00,North,1,5.0,20.0,78,0.00,,---,0.00,VWS V14.01,2013-05-10 22:00:00,
2013-05-10 14:03:00,51.1,23.7,30.20,South,182,2.0,3.0,34,0.00,,---,0.00,VWS V14.01,2013-05-10 22:03:00,
2013-05-10 14:08:00,51.5,23.4,30.20,South,188,1.0,6.0,33,0.00,,---,0.00,VWS V14.01,2013-05-10 22:08:00,
2013-05-10 14:13:00,52.0,23.8,30.20,SW,231,1.0,6.0,33,0.00,,---,0.00,VWS V14.01,2013-05-10 22:13:00,
2013-05-10 14:18:00,52.2,24.0,30.19,WSW,238,4.0,6.0,33,0.00,,---,0.00,VWS V14.01,2013-05-10 22:18:00,
2013-05-10 14:23:00,51.9,23.0,30.19,SW,225,5.0,6.0,32,0.00,,---,0.00,VWS V14.01,2013-05-10 22:23:00,
2013-05-10 14:28:00,51.7,22.8,30.19,East,89,2.0,6.0,32,0.00,,---,0.00,VWS V14.01,2013-05-10 22:28:00,
2013-05-10 14:30:00,28.9,30.5,100.00,North,1,5.0,21.0,78,0.00,,---,0.00,VWS V14.01,2013-05-10 22:30:00,
2013-05-10 14:33:00,51.8,22.9,30.19,SSW,193,3.0,5.0,32,0.00,,---,0.00,VWS V14.01,2013-05-10 22:33:00,
2013-05-10 14:38:00,51.9,23.0,30.18,SW,215,0.0,5.0,32,0.00,,---,0.00,VWS V14.01,2013-05-10 22:38:00,
2013-05-10 14:43:00,51.9,23.0,30.19,SW,232,1.0,7.0,32,0.00,,---,0.00,VWS V14.01,2013-05-10 22:43:00,
2013-05-10 14:48:00,52.1,23.2,30.18,SW,221,3.0,7.0,32,0.00,,---,0.00,VWS V14.01,2013-05-10 22:48:00,
2013-05-10 14:53:00,52.0,23.1,30.18,SSW,207,4.0,7.0,32,0.00,,---,0.00,VWS V14.01,2013-05-10 22:53:00,
2013-05-10 14:58:00,52.3,23.3,30.18,South,169,1.0,7.0,32,0.00,,---,0.00,VWS V14.01,2013-05-10 22:58:00,
2013-05-10 15:00:00,28.9,30.5,100.00,North,1,6.0,21.0,78,0.00,,---,0.00,VWS V14.01,2013-05-10 23:00:00,
2013-05-10 15:03:00,52.7,22.9,30.18,WSW,239,5.0,5.0,31,0.00,,---,0.00,VWS V14.01,2013-05-10 23:03:00,
2013-05-10 15:08:00,52.3,23.3,30.18,WSW,244,2.0,7.0,32,0.00,,---,0.00,VWS V14.01,2013-05-10 23:08:00,
2013-05-10 15:13:00,52.7,22.9,30.17,SW,219,4.0,7.0,31,0.00,,---,0.00,VWS V14.01,2013-05-10 23:13:00,
2013-05-10 15:18:00,53.0,23.2,30.17,WSW,251,5.0,7.0,31,0.00,,---,0.00,VWS V14.01,2013-05-10 23:18:00,
2013-05-10 15:23:00,52.9,23.1,30.17,SSW,201,1.0,7.0,31,0.00,,---,0.00,VWS V14.01,2013-05-10 23:23:00,
2013-05-10 15:28:00,52.9,22.3,30.17,SSW,200,0.0,7.0,30,0.00,,---,0.00,VWS V14.01,2013-05-10 23:28:00,
2013-05-10 15:30:00,28.9,30.5,100.00,North,1,4.0,21.0,78,0.00,,---,0.00,VWS V14.01,2013-05-10 23:30:00,
2013-05-10 15:33:00,53.0,22.4,30.17,SW,226,2.0,3.0,30,0.00,,---,0.00,VWS V14.01,2013-05-10 23:33:00,
2013-05-10 15:38:00,53.0,23.2,30.17,West,265,7.0,7.0,31,0.00,,---,0.00,VWS V14.01,2013-05-10 23:38:00,
2013-05-10 15:43:00,53.3,22.7,30.17,SSW,198,5.0,7.0,30,0.00,,---,0.00,VWS V14.01,2013-05-10 23:43:00,
2013-05-10 15:48:00,53.4,22.8,30.17,South,183,3.0,7.0,30,0.00,,---,0.00,VWS V14.01,2013-05-10 23:48:00,
2013-05-10 15:53:00,53.4,22.0,30.16,South,185,2.0,7.0,29,0.00,,---,0.00,VWS V14.01,2013-05-10 23:53:00,
2013-05-10 15:58:00,53.2,21.8,30.16,South,191,2.0,8.0,29,0.00,,---,0.00,VWS V14.01,2013-05-10 23:58:00,
2013-05-10 16:00:00,28.9,30.5,100.00,North,1,4.0,22.0,78,0.00,,---,0.00,VWS V14.01,2013-05-11 00:00:00,
2013-05-10 16:03:00,53.2,21.0,30.16,SSW,212,3.0,4.0,28,0.00,,---,0.00,VWS V14.01,2013-05-11 00:03:00,
2013-05-10 16:08:00,53.5,22.0,30.16,SSW,210,1.0,4.0,29,0.00,,---,0.00,VWS V14.01,2013-05-11 00:08:00,
2013-05-10 16:13:00,53.5,21.2,30.16,ESE,123,2.0,6.0,28,0.00,,---,0.00,VWS V14.01,2013-05-11 00:13:00,
2013-05-10 16:18:00,53.5,22.0,30.15,SSE,160,4.0,6.0,29,0.00,,---,0.00,VWS V14.01,2013-05-11 00:18:00,
2013-05-10 16:23:00,53.6,21.3,30.15,South,169,7.0,7.0,28,0.00,,---,0.00,VWS V14.01,2013-05-11 00:23:00,
2013-05-10 16:28:00,53.3,20.2,30.15,SSW,202,2.0,7.0,27,0.00,,---,0.00,VWS V14.01,2013-05-11 00:28:00,
2013-05-10 16:30:00,28.9,30.5,100.00,North,0,3.0,21.0,78,0.00,,---,0.00,VWS V14.01,2013-05-11 00:30:00,
2013-05-10 16:33:00,53.3,21.0,30.15,South,182,0.0,2.0,28,0.00,,---,0.00,VWS V14.01,2013-05-11 00:33:00,
2013-05-10 16:38:00,53.6,21.3,30.15,South,182,1.0,2.0,28,0.00,,---,0.00,VWS V14.01,2013-05-11 00:38:00,
2013-05-10 16:42:00,53.9,20.7,30.15,SSW,202,3.0,5.0,27,0.00,,---,0.00,VWS V14.01,2013-05-11 00:42:00,
2013-05-10 16:47:00,53.9,20.7,30.14,SW,217,1.0,5.0,27,0.00,,---,0.00,VWS V14.01,2013-05-11 00:47:00,
2013-05-10 16:52:00,53.6,21.3,30.14,SW,221,4.0,7.0,28,0.00,,---,0.00,VWS V14.01,2013-05-11 00:52:00,
2013-05-10 16:57:00,53.2,21.0,30.14,SW,219,3.0,7.0,28,0.00,,---,0.00,VWS V14.01,2013-05-11 00:57:00,
2013-05-10 17:00:00,53.1,20.9,30.14,SW,225,2.0,7.0,28,0.00,,---,0.00,VWS V14.01,2013-05-11 01:00:00,
2013-05-10 17:02:00,53.2,21.8,30.14,SSW,195,4.0,4.0,29,0.00,,---,0.00,VWS V14.01,2013-05-11 01:02:00,
2013-05-10 17:07:00,53.2,21.0,30.14,WSW,244,4.0,7.0,28,0.00,,---,0.00,VWS V14.01,2013-05-11 01:07:00,
2013-05-10 17:12:00,53.3,21.0,30.14,South,185,2.0,7.0,28,0.00,,---,0.00,VWS V14.01,2013-05-11 01:12:00,
2013-05-10 17:17:00,53.2,21.0,30.14,SSE,149,4.0,7.0,28,0.00,,---,0.00,VWS V14.01,2013-05-11 01:17:00,
2013-05-10 17:22:00,53.1,20.9,30.13,SSE,162,2.0,7.0,28,0.00,,---,0.00,VWS V14.01,2013-05-11 01:22:00,
2013-05-10 17:27:00,53.1,20.9,30.13,WSW,254,3.0,7.0,28,0.00,,---,0.00,VWS V14.01,2013-05-11 01:27:00,
2013-05-10 17:30:00,28.9,30.5,100.00,North,0,1.0,19.0,78,0.00,,---,0.00,VWS V14.01,2013-05-11 01:30:00,
2013-05-10 17:32:00,53.2,21.0,30.13,WSW,241,3.0,5.0,28,0.00,,---,0.00,VWS V14.01,2013-05-11 01:32:00,
2013-05-10 17:37:00,53.2,21.0,30.13,WSW,241,1.0,5.0,28,0.00,,---,0.00,VWS V14.01,2013-05-11 01:37:00,
2013-05-10 17:42:00,53.2,20.1,30.12,SW,234,0.0,5.0,27,0.00,,---,0.00,VWS V14.01,2013-05-11 01:42:00,
2013-05-10 17:47:00,53.1,20.9,30.12,SW,235,3.0,5.0,28,0.00,,---,0.00,VWS V14.01,2013-05-11 01:47:00,
2013-05-10 17:52:00,53.4,20.3,30.12,SW,235,0.0,5.0,27,0.00,,---,0.00,VWS V14.01,2013-05-11 01:52:00,
2013-05-10 17:57:00,53.7,20.5,30.12,SW,235,3.0,5.0,27,0.00,,---,0.00,VWS V14.01,2013-05-11 01:57:00,
2013-05-10 18:00:00,53.8,20.6,30.12,SW,225,2.0,6.0,27,0.00,,---,0.00,VWS V14.01,2013-05-11 02:00:00,
2013-05-10 18:02:00,53.9,21.6,30.12,SW,225,3.0,5.0,28,0.00,,---,0.00,VWS V14.01,2013-05-11 02:02:00,
2013-05-10 18:07:00,53.7,21.4,30.12,SW,217,0.0,6.0,28,0.00,,---,0.00,VWS V14.01,2013-05-11 02:07:00,
2013-05-10 18:12:00,53.7,21.4,30.11,SSW,205,1.0,6.0,28,0.00,,---,0.00,VWS V14.01,2013-05-11 02:12:00,
2013-05-10 18:17:00,53.7,20.5,30.11,SSW,207,0.0,6.0,27,0.00,,---,0.00,VWS V14.01,2013-05-11 02:17:00,
2013-05-10 18:22:00,53.8,20.6,30.11,South,171,5.0,7.0,27,0.00,,---,0.00,VWS V14.01,2013-05-11 02:22:00,
2013-05-10 18:27:00,53.6,20.5,30.11,South,188,2.0,7.0,27,0.00,,---,0.00,VWS V14.01,2013-05-11 02:27:00,
2013-05-10 18:30:00,28.8,30.5,100.00,North,0,0.0,18.0,78,0.00,,---,0.00,VWS V14.01,2013-05-11 02:30:00,
2013-05-10 18:32:00,53.6,20.5,30.11,South,188,0.0,0.0,27,0.00,,---,0.00,VWS V14.01,2013-05-11 02:32:00,
2013-05-10 18:37:00,53.8,20.6,30.11,SW,224,4.0,5.0,27,0.00,,---,0.00,VWS V14.01,2013-05-11 02:37:00,
2013-05-10 18:42:00,53.5,20.4,30.10,South,188,2.0,5.0,27,0.00,,---,0.00,VWS V14.01,2013-05-11 02:42:00,
2013-05-10 18:47:00,53.4,20.3,30.10,South,190,2.0,5.0,27,0.00,,---,0.00,VWS V14.01,2013-05-11 02:47:00,
2013-05-10 18:52:00,53.3,21.0,30.10,South,188,2.0,5.0,28,0.00,,---,0.00,VWS V14.01,2013-05-11 02:52:00,
2013-05-10 18:57:00,53.4,21.1,30.10,South,188,0.0,5.0,28,0.00,,---,0.00,VWS V14.01,2013-05-11 02:57:00,
2013-05-10 19:00:00,28.8,30.5,100.00,North,0,2.0,18.0,78,0.00,,---,0.00,VWS V14.01,2013-05-11 03:00:00,
2013-05-10 19:02:00,53.4,21.1,30.10,SSW,205,0.0,3.0,28,0.00,,---,0.00,VWS V14.01,2013-05-11 03:02:00,
2013-05-10 19:07:00,53.3,21.0,30.10,SSW,196,3.0,4.0,28,0.00,,---,0.00,VWS V14.01,2013-05-11 03:07:00,
2013-05-10 19:12:00,53.2,21.0,30.10,SW,217,2.0,4.0,28,0.00,,---,0.00,VWS V14.01,2013-05-11 03:12:00,
2013-05-10 19:17:00,53.2,21.0,30.10,SW,217,0.0,4.0,28,0.00,,---,0.00,VWS V14.01,2013-05-11 03:17:00,
2013-05-10 19:22:00,53.3,21.0,30.09,SW,217,0.0,4.0,28,0.00,,---,0.00,VWS V14.01,2013-05-11 03:22:00,
2013-05-10 19:27:00,53.5,21.2,30.09,SW,217,0.0,4.0,28,0.00,,---,0.00,VWS V14.01,2013-05-11 03:27:00,
2013-05-10 19:30:00,28.8,30.5,100.00,North,0,1.0,18.0,78,0.00,,---,0.00,VWS V14.01,2013-05-11 03:30:00,
2013-05-10 19:32:00,53.4,21.1,30.09,SW,217,1.0,1.0,28,0.00,,---,0.00,VWS V14.01,2013-05-11 03:32:00,
2013-05-10 19:37:00,53.2,21.0,30.09,SW,217,0.0,1.0,28,0.00,,---,0.00,VWS V14.01,2013-05-11 03:37:00,
2013-05-10 19:42:00,53.1,20.9,30.09,SW,227,0.0,2.0,28,0.00,,---,0.00,VWS V14.01,2013-05-11 03:42:00,
2013-05-10 19:47:00,53.1,20.0,30.09,NNW,331,0.0,4.0,27,0.00,,---,0.00,VWS V14.01,2013-05-11 03:47:00,
2013-05-10 19:52:00,53.1,20.9,30.08,NNW,331,0.0,4.0,28,0.00,,---,0.00,VWS V14.01,2013-05-11 03:52:00,
2013-05-10 19:57:00,53.2,21.0,30.08,WSW,237,0.0,4.0,28,0.00,,---,0.00,VWS V14.01,2013-05-11 03:57:00,
2013-05-10 20:00:00,53.2,21.0,30.08,SW,225,0.0,4.0,28,0.00,,---,0.00,VWS V14.01,2013-05-11 04:00:00,
2013-05-10 20:01:00,53.2,21.0,30.08,WSW,237,0.0,4.0,28,0.00,,---,0.00,VWS V14.01,2013-05-11 04:01:00,
2013-05-10 20:06:00,53.1,20.9,30.08,WSW,237,1.0,1.0,28,0.00,,---,0.00,VWS V14.01,2013-05-11 04:06:00,
2013-05-10 20:11:00,53.0,20.8,30.08,WSW,237,0.0,1.0,28,0.00,,---,0.00,VWS V14.01,2013-05-11 04:11:00,
2013-05-10 20:16:00,53.0,21.6,30.08,WSW,237,0.0,1.0,29,0.00,,---,0.00,VWS V14.01,2013-05-11 04:16:00,
2013-05-10 20:21:00,52.9,21.5,30.08,WSW,237,1.0,1.0,29,0.00,,---,0.00,VWS V14.01,2013-05-11 04:21:00,
2013-05-10 20:26:00,52.9,21.5,30.07,WSW,237,0.0,2.0,29,0.00,,---,0.00,VWS V14.01,2013-05-11 04:26:00,
2013-05-10 20:30:00,28.8,30.5,100.00,North,0,1.0,18.0,77,0.00,,---,0.00,VWS V14.01,2013-05-11 04:30:00,
2013-05-10 20:31:00,52.7,21.4,30.07,WSW,237,0.0,2.0,29,0.00,,---,0.00,VWS V14.01,2013-05-11 04:31:00,
2013-05-10 20:36:00,52.5,21.2,30.07,WSW,237,0.0,1.0,29,0.00,,---,0.00,VWS V14.01,2013-05-11 04:36:00,
2013-05-10 20:41:00,52.3,21.8,30.07,WSW,237,0.0,1.0,30,0.00,,---,0.00,VWS V14.01,2013-05-11 04:41:00,
2013-05-10 20:46:00,52.1,20.8,30.07,WSW,237,0.0,1.0,29,0.00,,---,0.00,VWS V14.01,2013-05-11 04:46:00,
2013-05-10 20:51:00,51.9,20.7,30.07,SW,227,0.0,2.0,29,0.00,,---,0.00,VWS V14.01,2013-05-11 04:51:00,
2013-05-10 20:56:00,51.8,20.6,30.07,SW,227,0.0,2.0,29,0.00,,---,0.00,VWS V14.01,2013-05-11 04:56:00,
2013-05-10 21:00:00,28.8,30.4,100.00,North,0,0.0,17.0,77,0.00,,---,0.00,VWS V14.01,2013-05-11 05:00:00,
2013-05-10 21:01:00,51.7,20.5,30.07,SW,227,0.0,2.0,29,0.00,,---,0.00,VWS V14.01,2013-05-11 05:01:00,
2013-05-10 21:06:00,51.6,20.4,30.07,SW,227,0.0,0.0,29,0.00,,---,0.00,VWS V14.01,2013-05-11 05:06:00,
2013-05-10 21:11:00,51.5,19.5,30.07,SW,227,0.0,0.0,28,0.00,,---,0.00,VWS V14.01,2013-05-11 05:11:00,
2013-05-10 21:16:00,51.4,19.4,30.07,SW,227,0.0,0.0,28,0.00,,---,0.00,VWS V14.01,2013-05-11 05:16:00,
2013-05-10 21:21:00,51.4,19.4,30.07,SW,227,0.0,1.0,28,0.00,,---,0.00,VWS V14.01,2013-05-11 05:21:00,
2013-05-10 21:26:00,51.3,19.3,30.07,SW,227,0.0,1.0,28,0.00,,---,0.00,VWS V14.01,2013-05-11 05:26:00,
2013-05-10 21:30:00,28.8,30.4,100.00,North,0,0.0,17.0,77,0.00,,---,0.00,VWS V14.01,2013-05-11 05:30:00,
2013-05-10 21:31:00,51.2,20.0,30.07,SW,227,0.0,1.0,29,0.00,,---,0.00,VWS V14.01,2013-05-11 05:31:00,
2013-05-10 21:36:00,51.0,19.9,30.07,SW,227,0.0,0.0,29,0.00,,---,0.00,VWS V14.01,2013-05-11 05:36:00,
2013-05-10 21:41:00,50.8,19.7,30.07,SW,227,0.0,0.0,29,0.00,,---,0.00,VWS V14.01,2013-05-11 05:41:00,
2013-05-10 21:46:00,50.7,19.6,30.06,SW,227,0.0,0.0,29,0.00,,---,0.00,VWS V14.01,2013-05-11 05:46:00,
2013-05-10 21:50:00,50.6,19.5,30.06,SW,227,0.0,0.0,29,0.00,,---,0.00,VWS V14.01,2013-05-11 05:50:00,
2013-05-10 21:55:00,50.4,19.4,30.06,SW,227,0.0,0.0,29,0.00,,---,0.00,VWS V14.01,2013-05-11 05:55:00,
2013-05-10 22:00:00,50.3,19.3,30.06,SW,227,0.0,0.0,29,0.00,,---,0.00,VWS V14.01,2013-05-11 06:00:00,
2013-05-10 22:05:00,50.2,19.2,30.06,SW,227,0.0,0.0,29,0.00,,---,0.00,VWS V14.01,2013-05-11 06:05:00,
2013-05-10 22:10:00,50.1,19.1,30.06,SW,227,0.0,0.0,29,0.00,,---,0.00,VWS V14.01,2013-05-11 06:10:00,
2013-05-10 22:15:00,50.1,19.1,30.06,SW,227,0.0,0.0,29,0.00,,---,0.00,VWS V14.01,2013-05-11 06:15:00,
2013-05-10 22:20:00,50.1,19.1,30.06,SW,227,0.0,0.0,29,0.00,,---,0.00,VWS V14.01,2013-05-11 06:20:00,
2013-05-10 22:25:00,50.0,19.8,30.06,SW,227,0.0,0.0,30,0.00,,---,0.00,VWS V14.01,2013-05-11 06:25:00,
2013-05-10 22:30:00,50.0,19.8,30.06,SW,227,0.0,0.0,30,0.00,,---,0.00,VWS V14.01,2013-05-11 06:30:00,
2013-05-10 22:35:00,50.0,19.8,30.06,SW,227,0.0,0.0,30,0.00,,---,0.00,VWS V14.01,2013-05-11 06:35:00,
2013-05-10 22:40:00,50.0,19.0,30.06,SW,227,0.0,0.0,29,0.00,,---,0.00,VWS V14.01,2013-05-11 06:40:00,
2013-05-10 22:45:00,50.0,19.8,30.06,SW,227,0.0,0.0,30,0.00,,---,0.00,VWS V14.01,2013-05-11 06:45:00,
2013-05-10 22:50:00,50.0,19.8,30.06,SW,227,0.0,0.0,30,0.00,,---,0.00,VWS V14.01,2013-05-11 06:50:00,
2013-05-10 22:55:00,50.0,19.8,30.05,SW,227,0.0,0.0,30,0.00,,---,0.00,VWS V14.01,2013-05-11 06:55:00,
2013-05-10 23:00:00,49.8,19.6,30.05,SW,227,0.0,1.0,30,0.00,,---,0.00,VWS V14.01,2013-05-11 07:00:00,
2013-05-10 23:05:00,49.7,19.5,30.05,SW,227,0.0,1.0,30,0.00,,---,0.00,VWS V14.01,2013-05-11 07:05:00,
2013-05-10 23:10:00,49.7,19.5,30.05,SW,227,0.0,1.0,30,0.00,,---,0.00,VWS V14.01,2013-05-11 07:10:00,
2013-05-10 23:15:00,49.6,19.5,30.05,SW,227,0.0,1.0,30,0.00,,---,0.00,VWS V14.01,2013-05-11 07:15:00,
2013-05-10 23:20:00,49.5,19.4,30.05,SW,227,0.0,1.0,30,0.00,,---,0.00,VWS V14.01,2013-05-11 07:20:00,
2013-05-10 23:25:00,49.5,19.4,30.05,SW,227,0.0,1.0,30,0.00,,---,0.00,VWS V14.01,2013-05-11 07:25:00,
2013-05-10 23:30:00,49.4,19.3,30.05,SW,227,0.0,1.0,30,0.00,,---,0.00,VWS V14.01,2013-05-11 07:30:00,
2013-05-10 23:35:00,49.3,19.2,30.05,SW,227,0.0,1.0,30,0.00,,---,0.00,VWS V14.01,2013-05-11 07:35:00,
2013-05-10 23:40:00,49.2,19.9,30.04,SW,227,1.0,1.0,31,0.00,,---,0.00,VWS V14.01,2013-05-11 07:40:00,
2013-05-10 23:45:00,49.1,19.8,30.04,SW,229,1.0,1.0,31,0.00,,---,0.00,VWS V14.01,2013-05-11 07:45:00,
2013-05-10 23:50:00,49.1,19.8,30.04,SW,229,0.0,1.0,31,0.00,,---,0.00,VWS V14.01,2013-05-11 07:50:00,
2013-05-10 23:55:00,49.0,19.7,30.04,WSW,243,0.0,1.0,31,0.00,,---,0.00,VWS V14.01,2013-05-11 07:55:00,